Regional Weather Roundup
Issued by NWS Wilmington, NC

Home | Current Version | Previous Version | Text Only | Print | Product List | Glossary On
Versions: 1 2 3 4 5 6 7 8 9 10 11 12 13 14 15 16 17 18 19 20 21 22 23 24 25 26 27 28 29 30 31 32 33 34 35 36 37 38 39 40 41 42 43 44 45 46 47 48 49 50
000
ASUS42 KILM 021913
RWRILM
RWRILM
REGIONAL HOURLY WEATHER ROUNDUP
NATIONAL WEATHER SERVICE WILMINGTON NC
300 PM EDT WED SEP 02 2015

NOTE: "FAIR" INDICATES FEW OR NO CLOUDS BELOW 12,000 FEET WITH NO
SIGNIFICANT WEATHER AND/OR OBSTRUCTIONS TO VISIBILITY.

...............WFO WILMINGTON COUNTY WARNING AREA...............

......COASTAL NC AND SC COUNTIES......

CITY           SKY/WX    TMP DP  RH WIND       PRES   REMARKS
WILMINGTON     PTSUNNY   93  66  40 CALM      30.01F HX  96
N MYRTLE BEACH MOSUNNY   89  73  59 S13       30.03F HX  97
MYRTLE BEACH   PTSUNNY   90  72  55 S13       30.04F HX  96

......INLAND NC AND SC COUNTIES.......

CITY           SKY/WX    TMP DP  RH WIND       PRES   REMARKS
LUMBERTON      MOSUNNY   93  67  42 CALM      30.01F HX  96
ELIZABETHTOWN  MOSUNNY   91  64  40 CALM      30.02F HX  92
WHITEVILLE     PTSUNNY   91  68  46 SW5       30.02F HX  94
FLORENCE       SUNNY     91  68  46 W3        30.02F HX  95
DARLINGTON     SUNNY     91  66  43 CALM      30.03F HX  94

....................REST OF NORTH CAROLINA......................

.........EASTERN NC.........

CITY           SKY/WX    TMP DP  RH WIND       PRES   REMARKS
CAPE HATTERAS  PTSUNNY   85  72  65 SE3       30.02F HX  91
JACKSONVILLE   MOSUNNY   91  66  43 CALM      30.01F HX  94
MOREHEAD CITY  MOSUNNY   85  73  67 S6        30.01F HX  91
KENANSVILLE      N/A     91  65  42 CALM      30.03F HX  92
NEW BERN       MOSUNNY   91  68  46 VRB3      30.02F HX  95
ELIZABETH CITY MOSUNNY   90  72  55 S10       30.00F HX  97

.........CENTRAL NC.........

CITY           SKY/WX    TMP DP  RH WIND       PRES   REMARKS
RALEIGH DURHAM PTSUNNY   89  70  53 W5        30.02F HX  94
ROCKY MOUNT    MOSUNNY   93  68  43 S7        30.01F HX  97
ROANOKE RAPIDS NOT AVBL
FAYETTEVILLE   MOSUNNY   91  68  46 E6        30.01F HX  95
HOFFMAN        MOSUNNY   91  65  42 W3        30.02F HX  93

.........WESTERN NC.........

CITY           SKY/WX    TMP DP  RH WIND       PRES   REMARKS
CHARLOTTE      PTSUNNY   92  63  38 CALM      30.05F HX  93
GREENSBORO     PTSUNNY   92  64  39 VRB6      30.04F HX  93
HICKORY        NOT AVBL
BOONE          NOT AVBL
ASHEVILLE      NOT AVBL

.....................REST OF SOUTH CAROLINA.....................

.........EASTERN SC.........

CITY           SKY/WX    TMP DP  RH WIND       PRES   REMARKS
CHARLESTON     PTSUNNY   88  72  58 S10       30.04F HX  94
BEAUFORT MCAS  CLOUDY    86  76  71 S3        30.05F HX  96
HILTON HEAD    MOSUNNY   82  75  78 S5        30.07F

.........CENTRAL SC.........

CITY           SKY/WX    TMP DP  RH WIND       PRES   REMARKS
COLUMBIA       MOSUNNY   91  67  44 E7        30.02F HX  94
ORANGEBURG     MOSUNNY   91  67  44 VRB3      30.03F HX  94
SUMTER SHAW    MOSUNNY   92  68  45 VRB1      30.01F HX  96

.........WESTERN SC.........

CITY           SKY/WX    TMP DP  RH WIND       PRES   REMARKS
GREENVILLE     NOT AVBL
ROCK HILL      PTSUNNY   92  63  38 SW5       30.05F HX  93
ANDERSON       MOSUNNY   88  67  49 S6        30.06F HX  91
CLEMSON        NOT AVBL
GREENWOOD      PTSUNNY   88  69  53 NW3       30.07F HX  92


...................COASTAL AND OFFSHORE REPORTS..................

................LOCAL PIERS AND NC RESERVE................


STATION/POSITION TIME  SKY/WX   TEMP    WIND        PRES    VSBY
                                AIR SEA DIR/SP/G
                 (UTC)          (F)     (DEG/KT/KT) (MB)    (MI)
JOHNY MRCER PIER 1800            83 84  170/  9/ 10 1016.9F
NC RESRV MASNBRO NOT AVBL
OCEAN CREST PIER NOT AVBL
SPRINGMAID  PIER 1800            83 82  160/  9/ 10 1017.7F


................COASTAL AND OFFSHORE BUOYS................


STATION/POSITION TIME  SKY/WX   TEMP    WIND        PRES    VSBY
                                AIR SEA DIR/SP/G
                 (UTC)          (F)     (DEG/KT/KT) (MB)    (MI)
DIMNDSHOAL 41025 1850            82 85  340/  2/  4 1016.9F
WVE H/P(F/S)=  2/ 9 SWL H/P/D(F/S/D)=  2/120/ 9

CAPE LOOKOUT     1900            82     150/  5/  6 1016.2F
ONSLOW BAY 41036 NOT AVBL
ONSLOW BAY 41064 1808            82 82  320/  2/  4 1017.5F
ONSLOW BAY 41159 1825               84                N/A
WVE H/P(F/S)=  2/ 7 WND WVE H/P(F/S)=  2/ 7

5SE WRITBC 41038 1808            83 83  200/ 10/ 12 1017.2F
MASNBO INL 41110 1819               83                N/A
WVE H/P(F/S)=  1/ 9 WND WVE H/P(F/S)=  2/ 9

WILM HARBR 41108 1811               84                N/A
WVE H/P(F/S)=  2/ 7 WND WVE H/P(F/S)=  2/ 7

27SE WRITB 41037 1800            79 83  250/  6/  6   N/A
FRYING PAN 41013 1850            83 83  230/  6/  8 1017.5F
WVE H/P(F/S)=  2/ 7 SWL H/P/D(F/S/D)=  2/130/ 7

SUNST NRSH 41024 NOT AVBL
CAPRS NRSH 41029 1808            83     160/  6/  8 1018.1F
EDISTO     41004 1850            82 85  140/  2/  4 1017.1F
WVE H/P(F/S)=  2/ 8 SWL H/P/D(F/S/D)=  2/ 8



..........OFFSHORE BUOYS BEYOND 100 NM OFFSHORE...........
.....IN A TRIANGLE---HAT TO BERMUDA TO BAHAMAS TO HAT.....


STATION/POSITION TIME  SKY/WX   TEMP    WIND        PRES    VSBY
                                AIR SEA DIR/SP/G
                 (UTC)          (F)     (DEG/KT/KT) (MB)    (MI)
150E HAT   41001 1900            80 83   30/  8/ 12 1015.5F
W BERMUDA  41048 1850            80 84  250/  8/ 10 1014.9F
WVE H/P(F/S)=  4/ 6 WND WVE H/P(F/S)=  2/ 4 SWL H/P/D(F/S/D)=  3/300/ 6

ATLANTIC S 41049 1850            84 86  330/  8/ 12 1016.1F
WVE H/P(F/S)=  3/13 WND WVE H/P(F/S)=  2/ 4 SWL H/P/D(F/S/D)=  3/ 40/13

E BAHAMAS  41046 1850            85 87   80/  4/  6 1016.7F
WVE H/P(F/S)=  2/ 9 WND WVE H/P(F/S)=  2/ 4 SWL H/P/D(F/S/D)=  2/ 70/ 9

NE BAHAMAS 41047 1850            85 90   CALM  /  4 1016.7F
WVE H/P(F/S)=  2/ 8 SWL H/P/D(F/S/D)=  2/ 90/ 8

120E CANVRL41010 1820            85 88  300/  2/  4 1018.7F

END


USA.gov is the U.S. government's official web portal to all federal, state and local government web resources and services.